Time,TemperatureF,DewpointF,PressureIn,WindDirection,WindDirectionDegrees,WindSpeedMPH,WindSpeedGustMPH,Humidity,HourlyPrecipIn,Conditions,Clouds,dailyrainin,SoftwareType,DateUTC
2013-04-22 00:01:00,68.2,66.4,30.08,ENE,78,0.0,2.0,94,0.02,,,0.01,meteohub,2013-04-22 04:01:00,
2013-04-22 00:06:00,68.2,66.4,30.08,ENE,65,0.0,4.0,94,0.02,,,0.01,meteohub,2013-04-22 04:06:00,
2013-04-22 00:11:00,68.0,66.2,30.08,NNE,19,3.0,4.0,94,0.02,,,0.01,meteohub,2013-04-22 04:11:00,
2013-04-22 00:16:00,68.0,66.2,30.07,East,96,2.0,4.0,94,0.02,,,0.01,meteohub,2013-04-22 04:16:00,
2013-04-22 00:21:00,67.8,66.0,30.06,East,84,1.0,4.0,94,0.01,,,0.01,meteohub,2013-04-22 04:21:00,
2013-04-22 00:26:00,67.8,66.0,30.06,East,98,0.0,4.0,94,0.01,,,0.01,meteohub,2013-04-22 04:26:00,
2013-04-22 00:31:00,67.8,66.0,30.06,East,90,2.0,3.0,94,0.01,,,0.01,meteohub,2013-04-22 04:31:00,
2013-04-22 00:36:00,67.8,66.0,30.06,East,98,0.0,6.0,94,0.01,,,0.01,meteohub,2013-04-22 04:36:00,
2013-04-22 00:41:00,67.8,66.0,30.06,ENE,78,0.0,6.0,94,0.01,,,0.01,meteohub,2013-04-22 04:41:00,
2013-04-22 00:46:00,67.8,66.0,30.06,ENE,63,1.0,6.0,94,0.01,,,0.01,meteohub,2013-04-22 04:46:00,
2013-04-22 00:51:00,67.8,66.4,30.06,ENE,61,1.0,5.0,95,0.01,,,0.01,meteohub,2013-04-22 04:51:00,
2013-04-22 00:56:00,67.8,66.4,30.06,NNE,16,1.0,4.0,95,0.00,,,0.01,meteohub,2013-04-22 04:56:00,
2013-04-22 01:01:00,67.8,66.4,30.07,NNE,17,2.0,5.0,95,0.00,,,0.01,meteohub,2013-04-22 05:01:00,
2013-04-22 01:06:00,67.8,66.4,30.08,NNE,17,0.0,5.0,95,0.00,,,0.01,meteohub,2013-04-22 05:06:00,
2013-04-22 01:11:00,67.8,66.4,30.08,NNE,19,1.0,5.0,95,0.00,,,0.01,meteohub,2013-04-22 05:11:00,
2013-04-22 01:16:00,67.8,66.4,30.08,NE,50,1.0,3.0,95,0.00,,,0.01,meteohub,2013-04-22 05:16:00,
2013-04-22 01:21:00,67.8,66.4,30.08,NE,40,1.0,3.0,95,0.00,,,0.01,meteohub,2013-04-22 05:21:00,
2013-04-22 01:26:00,67.8,66.4,30.08,East,92,0.0,3.0,95,0.00,,,0.01,meteohub,2013-04-22 05:26:00,
2013-04-22 01:31:00,67.8,66.4,30.08,NNE,28,0.0,3.0,95,0.00,,,0.01,meteohub,2013-04-22 05:31:00,
2013-04-22 01:36:00,67.8,66.4,30.09,WNW,287,0.0,3.0,95,0.00,,,0.01,meteohub,2013-04-22 05:36:00,
2013-04-22 01:41:00,67.8,66.4,30.09,NW,313,1.0,3.0,95,0.00,,,0.01,meteohub,2013-04-22 05:41:00,
2013-04-22 01:46:00,67.8,66.4,30.09,WNW,300,4.0,6.0,95,0.00,,,0.01,meteohub,2013-04-22 05:46:00,
2013-04-22 01:51:00,67.6,66.2,30.09,NNW,341,3.0,6.0,95,0.00,,,0.01,meteohub,2013-04-22 05:51:00,
2013-04-22 01:56:00,67.6,66.2,30.09,North,355,4.0,6.0,95,0.00,,,0.01,meteohub,2013-04-22 05:56:00,
2013-04-22 02:01:00,67.5,66.0,30.08,NNE,20,3.0,6.0,95,0.00,,,0.01,meteohub,2013-04-22 06:01:00,
2013-04-22 02:06:00,67.5,66.0,30.08,North,355,4.0,6.0,95,0.00,,,0.01,meteohub,2013-04-22 06:06:00,
2013-04-22 02:11:00,67.6,66.2,30.08,North,355,1.0,5.0,95,0.00,,,0.01,meteohub,2013-04-22 06:11:00,
2013-04-22 02:16:00,67.6,66.2,30.07,North,9,1.0,5.0,95,0.00,,,0.01,meteohub,2013-04-22 06:16:00,
2013-04-22 02:21:00,67.5,66.0,30.07,NE,51,1.0,4.0,95,0.00,,,0.01,meteohub,2013-04-22 06:21:00,
2013-04-22 02:26:00,67.5,66.0,30.06,NE,56,1.0,4.0,95,0.00,,,0.01,meteohub,2013-04-22 06:26:00,
2013-04-22 02:31:00,67.5,66.0,30.06,NE,44,0.0,4.0,95,0.00,,,0.01,meteohub,2013-04-22 06:31:00,
2013-04-22 02:36:00,67.5,66.0,30.05,NE,41,0.0,3.0,95,0.00,,,0.01,meteohub,2013-04-22 06:36:00,
2013-04-22 02:41:00,67.5,66.0,30.05,East,90,0.0,3.0,95,0.00,,,0.01,meteohub,2013-04-22 06:41:00,
2013-04-22 02:46:00,67.5,66.0,30.05,East,80,1.0,4.0,95,0.00,,,0.01,meteohub,2013-04-22 06:46:00,
2013-04-22 02:51:00,67.5,66.0,30.05,East,97,2.0,4.0,95,0.01,,,0.02,meteohub,2013-04-22 06:51:00,
2013-04-22 02:56:00,67.5,66.0,30.06,ENE,65,1.0,7.0,95,0.02,,,0.03,meteohub,2013-04-22 06:56:00,
2013-04-22 03:01:00,67.5,66.0,30.05,NE,54,0.0,7.0,95,0.03,,,0.04,meteohub,2013-04-22 07:01:00,
2013-04-22 03:06:00,67.5,66.0,30.05,ESE,104,0.0,7.0,95,0.04,,,0.05,meteohub,2013-04-22 07:06:00,
2013-04-22 03:11:00,67.5,66.0,30.05,East,101,0.0,3.0,95,0.11,,,0.11,meteohub,2013-04-22 07:11:00,
2013-04-22 03:16:00,67.6,66.4,30.05,ENE,57,0.0,4.0,96,0.14,,,0.15,meteohub,2013-04-22 07:16:00,
2013-04-22 03:21:00,67.6,66.4,30.05,ENE,72,3.0,4.0,96,0.16,,,0.17,meteohub,2013-04-22 07:21:00,
2013-04-22 03:26:00,67.6,66.4,30.05,East,85,2.0,4.0,96,0.17,,,0.17,meteohub,2013-04-22 07:26:00,
2013-04-22 03:31:00,67.5,66.2,30.05,East,82,0.0,4.0,96,0.17,,,0.18,meteohub,2013-04-22 07:31:00,
2013-04-22 03:36:00,67.5,66.2,30.04,NNE,29,0.0,4.0,96,0.17,,,0.18,meteohub,2013-04-22 07:36:00,
2013-04-22 03:41:00,67.5,66.2,30.04,NE,53,0.0,4.0,96,0.17,,,0.18,meteohub,2013-04-22 07:41:00,
2013-04-22 03:46:00,67.5,66.2,30.04,NE,45,0.0,4.0,96,0.16,,,0.18,meteohub,2013-04-22 07:46:00,
2013-04-22 03:51:00,67.6,66.4,30.04,NNE,24,0.0,4.0,96,0.15,,,0.18,meteohub,2013-04-22 07:51:00,
2013-04-22 03:56:00,67.6,66.4,30.04,NNE,24,0.0,4.0,96,0.15,,,0.18,meteohub,2013-04-22 07:56:00,
2013-04-22 04:01:00,67.6,66.4,30.03,North,5,1.0,3.0,96,0.14,,,0.18,meteohub,2013-04-22 08:01:00,
2013-04-22 04:06:00,67.6,66.4,30.03,NNE,24,1.0,3.0,96,0.13,,,0.18,meteohub,2013-04-22 08:06:00,
2013-04-22 04:11:00,67.6,66.4,30.03,NNE,13,0.0,3.0,96,0.06,,,0.18,meteohub,2013-04-22 08:11:00,
2013-04-22 04:16:00,67.8,66.6,30.03,NNE,31,0.0,3.0,96,0.02,,,0.18,meteohub,2013-04-22 08:16:00,
2013-04-22 04:21:00,67.8,66.6,30.03,NNE,31,0.0,2.0,96,0.01,,,0.18,meteohub,2013-04-22 08:21:00,
2013-04-22 04:26:00,67.8,66.6,30.03,NNE,31,0.0,1.0,96,0.00,,,0.18,meteohub,2013-04-22 08:26:00,
2013-04-22 04:31:00,67.8,66.9,30.03,NNE,31,0.0,1.0,97,0.00,,,0.18,meteohub,2013-04-22 08:31:00,
2013-04-22 04:36:00,67.8,66.9,30.02,NNE,31,0.0,1.0,97,0.00,,,0.18,meteohub,2013-04-22 08:36:00,
2013-04-22 04:41:00,67.8,66.9,30.02,NNE,31,0.0,0.0,97,0.00,,,0.18,meteohub,2013-04-22 08:41:00,
2013-04-22 04:46:00,67.8,66.9,30.02,NNE,31,0.0,1.0,97,0.00,,,0.18,meteohub,2013-04-22 08:46:00,
2013-04-22 04:51:00,67.8,66.9,30.03,NNE,31,0.0,1.0,97,0.00,,,0.18,meteohub,2013-04-22 08:51:00,
2013-04-22 04:56:00,67.6,66.7,30.02,NNE,31,0.0,1.0,97,0.00,,,0.18,meteohub,2013-04-22 08:56:00,
2013-04-22 05:01:00,67.8,66.9,30.02,NNE,31,0.0,1.0,97,0.00,,,0.18,meteohub,2013-04-22 09:01:00,
2013-04-22 05:06:00,67.6,66.7,30.02,NNE,31,0.0,1.0,97,0.00,,,0.18,meteohub,2013-04-22 09:06:00,
2013-04-22 05:11:00,67.6,66.7,30.02,North,0,0.0,2.0,97,0.00,,,0.18,meteohub,2013-04-22 09:11:00,
2013-04-22 05:16:00,67.6,66.4,30.01,North,5,1.0,2.0,96,0.00,,,0.18,meteohub,2013-04-22 09:16:00,
2013-04-22 05:21:00,67.5,66.2,30.01,North,9,1.0,3.0,96,0.00,,,0.18,meteohub,2013-04-22 09:21:00,
2013-04-22 05:26:00,67.5,66.2,30.01,North,0,0.0,3.0,96,0.00,,,0.18,meteohub,2013-04-22 09:26:00,
2013-04-22 05:31:00,67.3,66.4,30.01,NNW,345,1.0,3.0,97,0.00,,,0.18,meteohub,2013-04-22 09:31:00,
2013-04-22 05:36:00,67.3,66.4,30.01,NNE,19,0.0,3.0,97,0.00,,,0.18,meteohub,2013-04-22 09:36:00,
2013-04-22 05:41:00,67.3,66.4,30.00,NNW,348,0.0,4.0,97,0.00,,,0.18,meteohub,2013-04-22 09:41:00,
2013-04-22 05:46:00,67.1,66.2,30.01,North,351,1.0,4.0,97,0.00,,,0.18,meteohub,2013-04-22 09:46:00,
2013-04-22 05:51:00,67.1,66.2,30.01,NW,317,1.0,4.0,97,0.00,,,0.18,meteohub,2013-04-22 09:51:00,
2013-04-22 05:56:00,67.1,66.2,30.01,NW,320,1.0,3.0,97,0.00,,,0.18,meteohub,2013-04-22 09:56:00,
2013-04-22 06:01:00,66.9,66.0,30.01,NNE,19,4.0,4.0,97,0.00,,,0.18,meteohub,2013-04-22 10:01:00,
2013-04-22 06:06:00,66.9,66.0,30.01,North,355,3.0,4.0,97,0.00,,,0.18,meteohub,2013-04-22 10:06:00,
2013-04-22 06:11:00,66.9,66.0,30.01,NNW,336,1.0,4.0,97,0.00,,,0.18,meteohub,2013-04-22 10:11:00,
2013-04-22 06:16:00,66.7,65.8,30.01,NNE,22,2.0,4.0,97,0.00,,,0.18,meteohub,2013-04-22 10:16:00,
2013-04-22 06:21:00,66.7,65.8,30.01,North,355,1.0,5.0,97,0.00,,,0.18,meteohub,2013-04-22 10:21:00,
2013-04-22 06:26:00,66.7,65.8,30.01,North,355,1.0,5.0,97,0.00,,,0.18,meteohub,2013-04-22 10:26:00,
2013-04-22 06:31:00,66.6,65.7,30.01,North,0,0.0,5.0,97,0.00,,,0.18,meteohub,2013-04-22 10:31:00,
2013-04-22 06:36:00,66.7,65.8,30.01,NNE,33,0.0,4.0,97,0.00,,,0.18,meteohub,2013-04-22 10:36:00,
2013-04-22 06:41:00,66.6,65.7,30.02,North,355,0.0,4.0,97,0.00,,,0.18,meteohub,2013-04-22 10:41:00,
2013-04-22 06:46:00,66.7,65.8,30.02,NNW,339,0.0,4.0,97,0.00,,,0.18,meteohub,2013-04-22 10:46:00,
2013-04-22 06:51:00,66.7,65.8,30.02,NNW,330,5.0,5.0,97,0.00,,,0.18,meteohub,2013-04-22 10:51:00,
2013-04-22 06:56:00,66.7,65.8,30.03,NW,318,1.0,5.0,97,0.00,,,0.18,meteohub,2013-04-22 10:56:00,
2013-04-22 07:01:00,66.6,65.7,30.03,NNW,328,3.0,5.0,97,0.00,,,0.18,meteohub,2013-04-22 11:01:00,
2013-04-22 07:06:00,66.7,65.8,30.03,NW,311,3.0,5.0,97,0.00,,,0.18,meteohub,2013-04-22 11:06:00,
2013-04-22 07:11:00,66.7,65.8,30.03,NW,324,2.0,6.0,97,0.00,,,0.18,meteohub,2013-04-22 11:11:00,
2013-04-22 07:16:00,66.7,65.8,30.03,NNE,15,2.0,7.0,97,0.00,,,0.18,meteohub,2013-04-22 11:16:00,
2013-04-22 07:21:00,66.7,65.8,30.03,North,355,0.0,7.0,97,0.00,,,0.18,meteohub,2013-04-22 11:21:00,
2013-04-22 07:26:00,66.7,65.8,30.03,North,355,1.0,7.0,97,0.00,,,0.18,meteohub,2013-04-22 11:26:00,
2013-04-22 07:31:00,66.9,66.0,30.03,North,9,0.0,7.0,97,0.00,,,0.18,meteohub,2013-04-22 11:31:00,
2013-04-22 07:36:00,66.9,66.0,30.03,NNW,343,1.0,6.0,97,0.00,,,0.18,meteohub,2013-04-22 11:36:00,
2013-04-22 07:41:00,66.9,66.0,30.04,NNE,15,3.0,6.0,97,0.00,,,0.18,meteohub,2013-04-22 11:41:00,
2013-04-22 07:46:00,66.9,66.0,30.04,North,355,1.0,6.0,97,0.00,,,0.18,meteohub,2013-04-22 11:46:00,
2013-04-22 07:51:00,66.9,66.0,30.04,NNW,336,2.0,6.0,97,0.00,,,0.18,meteohub,2013-04-22 11:51:00,
2013-04-22 07:56:00,66.9,66.0,30.05,NNW,347,1.0,6.0,97,0.00,,,0.18,meteohub,2013-04-22 11:56:00,
2013-04-22 08:01:00,66.9,66.0,30.05,North,0,2.0,6.0,97,0.00,,,0.18,meteohub,2013-04-22 12:01:00,
2013-04-22 08:06:00,66.9,66.0,30.05,North,355,3.0,6.0,97,0.00,,,0.18,meteohub,2013-04-22 12:06:00,
2013-04-22 08:11:00,66.9,66.0,30.05,North,9,5.0,8.0,97,0.00,,,0.18,meteohub,2013-04-22 12:11:00,
2013-04-22 08:16:00,66.7,65.8,30.05,North,355,2.0,8.0,97,0.00,,,0.18,meteohub,2013-04-22 12:16:00,
2013-04-22 08:21:00,66.9,66.0,30.05,North,11,3.0,8.0,97,0.00,,,0.18,meteohub,2013-04-22 12:21:00,
2013-04-22 08:26:00,66.7,65.8,30.05,North,0,3.0,7.0,97,0.00,,,0.18,meteohub,2013-04-22 12:26:00,
2013-04-22 08:31:00,66.7,65.8,30.06,East,92,1.0,7.0,97,0.00,,,0.18,meteohub,2013-04-22 12:31:00,
2013-04-22 08:36:00,66.9,66.0,30.06,NNE,28,3.0,7.0,97,0.00,,,0.18,meteohub,2013-04-22 12:36:00,
2013-04-22 08:41:00,66.7,65.8,30.06,NNW,327,1.0,7.0,97,0.00,,,0.18,meteohub,2013-04-22 12:41:00,
2013-04-22 08:46:00,66.9,66.0,30.06,NNW,338,1.0,6.0,97,0.00,,,0.18,meteohub,2013-04-22 12:46:00,
2013-04-22 08:51:00,66.9,66.0,30.06,North,5,1.0,6.0,97,0.00,,,0.18,meteohub,2013-04-22 12:51:00,
2013-04-22 08:56:00,66.9,66.0,30.06,NNW,332,0.0,5.0,97,0.00,,,0.18,meteohub,2013-04-22 12:56:00,
2013-04-22 09:01:00,67.1,66.2,30.06,NNE,19,4.0,5.0,97,0.00,,,0.18,meteohub,2013-04-22 13:01:00,
2013-04-22 09:06:00,67.3,66.4,30.06,NNW,328,1.0,5.0,97,0.00,,,0.18,meteohub,2013-04-22 13:06:00,
2013-04-22 09:11:00,67.5,66.6,30.06,NNW,347,3.0,5.0,97,0.00,,,0.18,meteohub,2013-04-22 13:11:00,
2013-04-22 09:16:00,67.5,66.6,30.06,NW,325,1.0,5.0,97,0.00,,,0.18,meteohub,2013-04-22 13:16:00,
2013-04-22 09:21:00,67.5,66.6,30.06,NW,325,3.0,5.0,97,0.00,,,0.18,meteohub,2013-04-22 13:21:00,
2013-04-22 09:26:00,67.6,66.7,30.07,WNW,300,0.0,7.0,97,0.00,,,0.18,meteohub,2013-04-22 13:26:00,
2013-04-22 09:31:00,67.8,66.9,30.07,NNE,28,3.0,7.0,97,0.00,,,0.18,meteohub,2013-04-22 13:31:00,
2013-04-22 09:36:00,68.2,67.3,30.07,NNE,16,0.0,6.0,97,0.00,,,0.18,meteohub,2013-04-22 13:36:00,
2013-04-22 09:41:00,68.5,67.6,30.07,NNW,333,2.0,5.0,97,0.01,,,0.19,meteohub,2013-04-22 13:41:00,
2013-04-22 09:46:00,68.5,67.6,30.08,NNE,13,2.0,6.0,97,0.01,,,0.19,meteohub,2013-04-22 13:46:00,
2013-04-22 09:51:00,68.7,67.5,30.07,North,5,2.0,7.0,96,0.01,,,0.19,meteohub,2013-04-22 13:51:00,
2013-04-22 09:56:00,69.1,67.6,30.08,NNW,346,1.0,7.0,95,0.01,,,0.19,meteohub,2013-04-22 13:56:00,
2013-04-22 10:01:00,69.3,67.8,30.08,North,5,2.0,7.0,95,0.01,,,0.19,meteohub,2013-04-22 14:01:00,
2013-04-22 10:06:00,69.6,68.2,30.08,NNE,22,0.0,6.0,95,0.01,,,0.19,meteohub,2013-04-22 14:06:00,
2013-04-22 10:11:00,69.8,68.0,30.08,East,89,0.0,4.0,94,0.01,,,0.19,meteohub,2013-04-22 14:11:00,
2013-04-22 10:16:00,70.2,68.0,30.08,ENE,57,1.0,5.0,93,0.01,,,0.19,meteohub,2013-04-22 14:16:00,
2013-04-22 10:21:00,70.2,67.6,30.08,NNW,343,2.0,5.0,92,0.01,,,0.19,meteohub,2013-04-22 14:21:00,
2013-04-22 10:26:00,70.3,67.8,30.08,NE,35,1.0,5.0,92,0.01,,,0.19,meteohub,2013-04-22 14:26:00,
2013-04-22 10:31:00,70.5,68.0,30.08,NNE,33,1.0,5.0,92,0.01,,,0.19,meteohub,2013-04-22 14:31:00,
2013-04-22 10:36:00,70.9,68.2,30.08,NNE,21,2.0,5.0,91,0.00,,,0.19,meteohub,2013-04-22 14:36:00,
2013-04-22 10:41:00,71.2,68.2,30.08,NNE,26,3.0,5.0,90,0.00,,,0.19,meteohub,2013-04-22 14:41:00,
2013-04-22 10:46:00,71.4,68.0,30.09,North,355,2.0,6.0,89,0.00,,,0.19,meteohub,2013-04-22 14:46:00,
2013-04-22 10:51:00,72.0,68.5,30.09,NE,53,1.0,6.0,89,0.00,,,0.19,meteohub,2013-04-22 14:51:00,
2013-04-22 10:56:00,72.7,68.9,30.09,NE,40,1.0,6.0,88,0.00,,,0.19,meteohub,2013-04-22 14:56:00,
2013-04-22 11:01:00,73.0,68.5,30.09,ESE,116,0.0,6.0,86,0.00,,,0.19,meteohub,2013-04-22 15:01:00,
2013-04-22 11:06:00,73.2,68.7,30.09,NNE,27,1.0,5.0,86,0.00,,,0.19,meteohub,2013-04-22 15:06:00,
2013-04-22 11:11:00,73.2,68.7,30.09,North,0,6.0,6.0,86,0.00,,,0.19,meteohub,2013-04-22 15:11:00,
2013-04-22 11:16:00,72.9,68.4,30.09,ENE,76,1.0,7.0,86,0.00,,,0.19,meteohub,2013-04-22 15:16:00,
2013-04-22 11:21:00,73.2,68.7,30.09,NNE,13,3.0,7.0,86,0.00,,,0.19,meteohub,2013-04-22 15:21:00,
2013-04-22 11:26:00,73.8,68.9,30.09,NNW,348,2.0,7.0,85,0.00,,,0.19,meteohub,2013-04-22 15:26:00,
2013-04-22 11:31:00,73.9,69.1,30.09,NE,50,3.0,5.0,85,0.00,,,0.19,meteohub,2013-04-22 15:31:00,
2013-04-22 11:36:00,74.1,68.5,30.09,NNW,344,1.0,5.0,83,0.00,,,0.19,meteohub,2013-04-22 15:36:00,
2013-04-22 11:41:00,73.9,68.7,30.09,NNE,19,2.0,6.0,84,0.00,,,0.19,meteohub,2013-04-22 15:41:00,
2013-04-22 11:46:00,74.1,68.5,30.09,East,98,2.0,6.0,83,0.00,,,0.19,meteohub,2013-04-22 15:46:00,
2013-04-22 11:51:00,75.0,69.1,30.09,NE,40,0.0,6.0,82,0.00,,,0.19,meteohub,2013-04-22 15:51:00,
2013-04-22 11:56:00,75.6,69.3,30.09,North,0,3.0,6.0,81,0.00,,,0.19,meteohub,2013-04-22 15:56:00,
2013-04-22 12:01:00,75.6,68.9,30.09,NNE,24,2.0,6.0,80,0.00,,,0.19,meteohub,2013-04-22 16:01:00,
2013-04-22 12:06:00,75.9,68.9,30.09,NNW,340,4.0,6.0,79,0.00,,,0.19,meteohub,2013-04-22 16:06:00,
2013-04-22 12:11:00,75.9,68.9,30.09,NE,49,1.0,6.0,79,0.00,,,0.19,meteohub,2013-04-22 16:11:00,
2013-04-22 12:16:00,76.6,69.3,30.09,ENE,71,3.0,6.0,78,0.00,,,0.19,meteohub,2013-04-22 16:16:00,
2013-04-22 12:21:00,77.4,69.6,30.09,NE,47,2.0,8.0,77,0.00,,,0.19,meteohub,2013-04-22 16:21:00,
2013-04-22 12:26:00,78.3,70.0,30.08,North,0,3.0,8.0,76,0.00,,,0.19,meteohub,2013-04-22 16:26:00,
2013-04-22 12:31:00,79.3,70.0,30.08,East,97,5.0,8.0,73,0.00,,,0.19,meteohub,2013-04-22 16:31:00,
2013-04-22 12:36:00,80.1,70.2,30.08,NNW,331,1.0,7.0,72,0.00,,,0.19,meteohub,2013-04-22 16:36:00,
2013-04-22 12:41:00,79.9,69.6,30.08,East,93,2.0,7.0,71,0.00,,,0.19,meteohub,2013-04-22 16:41:00,
2013-04-22 12:46:00,79.7,69.8,30.08,NNE,15,3.0,6.0,72,0.00,,,0.19,meteohub,2013-04-22 16:46:00,
2013-04-22 12:51:00,79.5,69.3,30.07,North,9,3.0,6.0,71,0.00,,,0.19,meteohub,2013-04-22 16:51:00,
2013-04-22 12:56:00,80.1,68.9,30.07,North,5,4.0,7.0,69,0.00,,,0.19,meteohub,2013-04-22 16:56:00,
2013-04-22 13:01:00,80.4,69.3,30.07,NE,34,0.0,7.0,69,0.00,,,0.19,meteohub,2013-04-22 17:01:00,
2013-04-22 13:06:00,80.4,69.8,30.07,NW,309,0.0,6.0,70,0.00,,,0.19,meteohub,2013-04-22 17:06:00,
2013-04-22 13:11:00,80.2,69.6,30.06,NNE,17,2.0,6.0,70,0.00,,,0.19,meteohub,2013-04-22 17:11:00,
2013-04-22 13:16:00,79.7,69.1,30.06,WNW,298,3.0,8.0,70,0.00,,,0.19,meteohub,2013-04-22 17:16:00,
2013-04-22 13:21:00,79.0,69.3,30.06,NNW,332,4.0,8.0,72,0.00,,,0.19,meteohub,2013-04-22 17:21:00,
2013-04-22 13:26:00,78.6,68.9,30.06,East,88,1.0,8.0,72,0.00,,,0.19,meteohub,2013-04-22 17:26:00,
2013-04-22 13:31:00,79.3,69.4,30.06,SE,128,3.0,8.0,72,0.00,,,0.19,meteohub,2013-04-22 17:31:00,
2013-04-22 13:36:00,80.6,69.4,30.05,North,0,5.0,7.0,69,0.00,,,0.19,meteohub,2013-04-22 17:36:00,
2013-04-22 13:41:00,81.0,69.4,30.06,NNE,17,3.0,7.0,68,0.00,,,0.19,meteohub,2013-04-22 17:41:00,
2013-04-22 13:46:00,80.2,69.6,30.06,NW,319,1.0,8.0,70,0.00,,,0.19,meteohub,2013-04-22 17:46:00,
2013-04-22 13:51:00,79.3,69.1,30.06,North,9,5.0,8.0,71,0.00,,,0.19,meteohub,2013-04-22 17:51:00,
2013-04-22 13:56:00,78.6,68.9,30.05,NNW,328,5.0,8.0,72,0.00,,,0.19,meteohub,2013-04-22 17:56:00,
2013-04-22 14:01:00,79.0,69.6,30.05,North,5,6.0,8.0,73,0.00,,,0.19,meteohub,2013-04-22 18:01:00,
2013-04-22 14:06:00,79.3,68.7,30.05,NNE,14,4.0,10.0,70,0.00,,,0.19,meteohub,2013-04-22 18:06:00,
2013-04-22 14:11:00,79.5,69.6,30.05,NNE,12,3.0,10.0,72,0.00,,,0.19,meteohub,2013-04-22 18:11:00,
2013-04-22 14:16:00,80.6,69.4,30.04,North,349,6.0,10.0,69,0.00,,,0.19,meteohub,2013-04-22 18:16:00,
2013-04-22 14:21:00,80.6,69.4,30.04,North,11,4.0,10.0,69,0.00,,,0.19,meteohub,2013-04-22 18:21:00,
2013-04-22 14:26:00,81.5,69.4,30.04,NE,40,3.0,9.0,67,0.00,,,0.19,meteohub,2013-04-22 18:26:00,
2013-04-22 14:31:00,81.3,68.9,30.04,NE,35,0.0,9.0,66,0.00,,,0.19,meteohub,2013-04-22 18:31:00,
2013-04-22 14:36:00,81.7,69.3,30.04,North,5,5.0,8.0,66,0.00,,,0.19,meteohub,2013-04-22 18:36:00,
2013-04-22 14:41:00,82.0,69.6,30.04,ESE,121,2.0,8.0,66,0.00,,,0.19,meteohub,2013-04-22 18:41:00,
2013-04-22 14:46:00,81.9,69.4,30.04,NE,39,3.0,8.0,66,0.00,,,0.19,meteohub,2013-04-22 18:46:00,
2013-04-22 14:51:00,80.8,68.4,30.04,NNE,24,2.0,8.0,66,0.00,,,0.19,meteohub,2013-04-22 18:51:00,
2013-04-22 14:56:00,80.1,68.2,30.04,North,0,5.0,8.0,67,0.00,,,0.19,meteohub,2013-04-22 18:56:00,
2013-04-22 15:01:00,79.9,68.7,30.03,North,350,5.0,7.0,69,0.00,,,0.19,meteohub,2013-04-22 19:01:00,
2013-04-22 15:06:00,79.3,68.4,30.03,WNW,301,2.0,9.0,69,0.00,,,0.19,meteohub,2013-04-22 19:06:00,
2013-04-22 15:11:00,79.9,68.7,30.03,North,5,1.0,9.0,69,0.00,,,0.19,meteohub,2013-04-22 19:11:00,
2013-04-22 15:16:00,80.8,68.7,30.03,North,0,5.0,9.0,67,0.00,,,0.19,meteohub,2013-04-22 19:16:00,
2013-04-22 15:21:00,81.3,68.9,30.03,NNE,17,2.0,7.0,66,0.00,,,0.19,meteohub,2013-04-22 19:21:00,
2013-04-22 15:26:00,81.5,69.1,30.02,NE,46,5.0,7.0,66,0.00,,,0.19,meteohub,2013-04-22 19:26:00,
2013-04-22 15:31:00,81.9,68.9,30.02,North,5,1.0,8.0,65,0.00,,,0.19,meteohub,2013-04-22 19:31:00,
2013-04-22 15:36:00,81.1,68.7,30.02,NNW,328,2.0,8.0,66,0.00,,,0.19,meteohub,2013-04-22 19:36:00,
2013-04-22 15:41:00,80.2,68.4,30.02,NNE,17,5.0,8.0,67,0.00,,,0.19,meteohub,2013-04-22 19:41:00,
2013-04-22 15:46:00,79.7,68.5,30.01,North,5,3.0,8.0,69,0.00,,,0.19,meteohub,2013-04-22 19:46:00,
2013-04-22 15:51:00,79.3,67.8,30.01,NNW,334,3.0,8.0,68,0.00,,,0.19,meteohub,2013-04-22 19:51:00,
2013-04-22 15:56:00,78.6,67.6,30.01,North,5,2.0,9.0,69,0.00,,,0.19,meteohub,2013-04-22 19:56:00,
2013-04-22 16:01:00,79.2,68.2,30.01,NNW,338,1.0,9.0,69,0.00,,,0.19,meteohub,2013-04-22 20:01:00,
2013-04-22 16:06:00,80.8,68.0,30.00,East,89,3.0,9.0,65,0.00,,,0.19,meteohub,2013-04-22 20:06:00,
2013-04-22 16:11:00,80.8,67.5,30.00,NNE,14,3.0,8.0,64,0.00,,,0.19,meteohub,2013-04-22 20:11:00,
2013-04-22 16:16:00,80.2,67.8,30.00,NNW,327,5.0,8.0,66,0.00,,,0.19,meteohub,2013-04-22 20:16:00,
2013-04-22 16:21:00,81.1,68.2,30.00,NNE,15,1.0,9.0,65,0.00,,,0.19,meteohub,2013-04-22 20:21:00,
2013-04-22 16:26:00,82.2,68.4,29.99,NNW,330,4.0,9.0,63,0.00,,,0.19,meteohub,2013-04-22 20:26:00,
2013-04-22 16:31:00,82.0,68.2,29.99,NNW,336,3.0,9.0,63,0.00,,,0.19,meteohub,2013-04-22 20:31:00,
2013-04-22 16:36:00,81.1,67.3,29.99,NNW,339,2.0,8.0,63,0.00,,,0.19,meteohub,2013-04-22 20:36:00,
2013-04-22 16:41:00,80.6,67.8,29.99,NNW,344,3.0,8.0,65,0.00,,,0.19,meteohub,2013-04-22 20:41:00,
2013-04-22 16:46:00,81.3,68.4,29.99,NNW,328,3.0,8.0,65,0.00,,,0.19,meteohub,2013-04-22 20:46:00,
2013-04-22 16:51:00,82.0,68.7,29.99,NW,318,6.0,8.0,64,0.00,,,0.19,meteohub,2013-04-22 20:51:00,
2013-04-22 16:56:00,81.1,68.2,29.99,NNW,342,5.0,8.0,65,0.00,,,0.19,meteohub,2013-04-22 20:56:00,
2013-04-22 17:01:00,80.4,68.0,29.99,WNW,299,2.0,9.0,66,0.00,,,0.19,meteohub,2013-04-22 21:01:00,
2013-04-22 17:06:00,80.2,66.9,29.99,NNW,347,5.0,9.0,64,0.00,,,0.19,meteohub,2013-04-22 21:06:00,
2013-04-22 17:11:00,79.9,67.5,29.99,North,355,3.0,9.0,66,0.00,,,0.19,meteohub,2013-04-22 21:11:00,
2013-04-22 17:16:00,79.9,67.5,29.99,NW,326,4.0,7.0,66,0.00,,,0.19,meteohub,2013-04-22 21:16:00,
2013-04-22 17:21:00,79.3,67.5,29.99,NNW,328,5.0,7.0,67,0.00,,,0.19,meteohub,2013-04-22 21:21:00,
2013-04-22 17:26:00,79.3,66.9,29.99,NNE,19,3.0,9.0,66,0.00,,,0.19,meteohub,2013-04-22 21:26:00,
2013-04-22 17:31:00,79.3,67.5,29.99,NW,317,3.0,9.0,67,0.00,,,0.19,meteohub,2013-04-22 21:31:00,
2013-04-22 17:36:00,79.2,67.6,29.99,North,355,4.0,8.0,68,0.00,,,0.19,meteohub,2013-04-22 21:36:00,
2013-04-22 17:41:00,79.2,67.3,29.99,NW,325,2.0,9.0,67,0.00,,,0.19,meteohub,2013-04-22 21:41:00,
2013-04-22 17:46:00,79.0,67.1,30.00,NW,308,3.0,9.0,67,0.00,,,0.19,meteohub,2013-04-22 21:46:00,
2013-04-22 17:51:00,79.2,67.3,29.99,NNW,328,2.0,9.0,67,0.00,,,0.19,meteohub,2013-04-22 21:51:00,
2013-04-22 17:56:00,79.3,67.8,29.99,NNE,26,3.0,11.0,68,0.00,,,0.19,meteohub,2013-04-22 21:56:00,
2013-04-22 18:01:00,79.2,67.6,29.99,NW,315,1.0,11.0,68,0.00,,,0.19,meteohub,2013-04-22 22:01:00,
2013-04-22 18:06:00,79.2,68.2,30.00,NW,309,7.0,11.0,69,0.00,,,0.19,meteohub,2013-04-22 22:06:00,
2013-04-22 18:11:00,78.4,67.8,30.00,NNW,338,5.0,12.0,70,0.00,,,0.19,meteohub,2013-04-22 22:11:00,
2013-04-22 18:16:00,78.6,68.4,30.00,North,5,5.0,12.0,71,0.00,,,0.19,meteohub,2013-04-22 22:16:00,
2013-04-22 18:21:00,79.0,68.0,29.99,NNW,329,3.0,12.0,69,0.00,,,0.19,meteohub,2013-04-22 22:21:00,
2013-04-22 18:26:00,79.2,68.5,30.00,North,5,7.0,8.0,70,0.00,,,0.19,meteohub,2013-04-22 22:26:00,
2013-04-22 18:31:00,79.2,68.2,29.99,North,5,4.0,10.0,69,0.00,,,0.19,meteohub,2013-04-22 22:31:00,
2013-04-22 18:36:00,79.2,68.2,29.99,North,351,5.0,10.0,69,0.00,,,0.19,meteohub,2013-04-22 22:36:00,
2013-04-22 18:41:00,78.6,68.0,30.00,North,5,5.0,10.0,70,0.00,,,0.19,meteohub,2013-04-22 22:41:00,
2013-04-22 18:46:00,78.8,68.2,30.00,North,5,1.0,10.0,70,0.00,,,0.19,meteohub,2013-04-22 22:46:00,
2013-04-22 18:51:00,78.4,67.8,30.00,NNE,13,1.0,11.0,70,0.00,,,0.19,meteohub,2013-04-22 22:51:00,
2013-04-22 18:56:00,78.4,68.2,30.00,NE,41,3.0,11.0,71,0.00,,,0.19,meteohub,2013-04-22 22:56:00,
2013-04-22 19:01:00,78.3,67.6,30.00,NNE,15,3.0,11.0,70,0.00,,,0.19,meteohub,2013-04-22 23:01:00,
2013-04-22 19:06:00,77.4,67.6,30.00,NNE,26,6.0,10.0,72,0.00,,,0.19,meteohub,2013-04-22 23:06:00,
2013-04-22 19:11:00,76.5,67.1,30.01,NNE,31,4.0,10.0,73,0.00,,,0.19,meteohub,2013-04-22 23:11:00,
2013-04-22 19:16:00,75.7,67.3,30.01,North,0,3.0,12.0,75,0.00,,,0.19,meteohub,2013-04-22 23:16:00,
2013-04-22 19:21:00,75.4,66.9,30.01,NNW,346,10.0,12.0,75,0.00,,,0.19,meteohub,2013-04-22 23:21:00,
2013-04-22 19:26:00,74.8,66.7,30.01,NNE,22,7.0,12.0,76,0.00,,,0.19,meteohub,2013-04-22 23:26:00,
2013-04-22 19:31:00,74.5,66.7,30.01,NNW,348,2.0,13.0,77,0.00,,,0.19,meteohub,2013-04-22 23:31:00,
2013-04-22 19:36:00,74.1,66.4,30.02,ENE,65,4.0,13.0,77,0.00,,,0.19,meteohub,2013-04-22 23:36:00,
2013-04-22 19:41:00,73.8,66.4,30.02,NNW,346,5.0,13.0,78,0.00,,,0.19,meteohub,2013-04-22 23:41:00,
2013-04-22 19:46:00,73.4,66.6,30.02,NNW,348,4.0,11.0,79,0.00,,,0.19,meteohub,2013-04-22 23:46:00,
2013-04-22 19:51:00,73.2,66.4,30.03,North,9,4.0,14.0,79,0.00,,,0.19,meteohub,2013-04-22 23:51:00,
2013-04-22 19:56:00,72.9,66.4,30.03,North,10,4.0,14.0,80,0.00,,,0.19,meteohub,2013-04-22 23:56:00,
2013-04-22 20:01:00,72.7,66.2,30.03,NNW,345,2.0,14.0,80,0.00,,,0.19,meteohub,2013-04-23 00:01:00,
2013-04-22 20:06:00,72.5,66.0,30.03,NE,38,3.0,12.0,80,0.00,,,0.19,meteohub,2013-04-23 00:06:00,
2013-04-22 20:11:00,72.1,66.0,30.03,ENE,68,2.0,9.0,81,0.00,,,0.19,meteohub,2013-04-23 00:11:00,
2013-04-22 20:16:00,72.0,65.8,30.03,NE,35,3.0,10.0,81,0.00,,,0.19,meteohub,2013-04-23 00:16:00,
2013-04-22 20:21:00,71.8,65.7,30.03,NE,46,5.0,10.0,81,0.00,,,0.19,meteohub,2013-04-23 00:21:00,
2013-04-22 20:26:00,71.4,65.3,30.04,NNE,33,3.0,11.0,81,0.00,,,0.19,meteohub,2013-04-23 00:26:00,
2013-04-22 20:31:00,71.4,65.3,30.04,ENE,63,4.0,11.0,81,0.00,,,0.19,meteohub,2013-04-23 00:31:00,
2013-04-22 20:36:00,71.2,65.5,30.04,NE,49,4.0,11.0,82,0.00,,,0.19,meteohub,2013-04-23 00:36:00,
2013-04-22 20:41:00,71.2,65.5,30.04,NNE,21,2.0,10.0,82,0.00,,,0.19,meteohub,2013-04-23 00:41:00,
2013-04-22 20:46:00,71.1,65.3,30.04,NNE,24,5.0,9.0,82,0.00,,,0.19,meteohub,2013-04-23 00:46:00,
2013-04-22 20:51:00,70.9,65.1,30.04,NE,49,3.0,10.0,82,0.00,,,0.19,meteohub,2013-04-23 00:51:00,
2013-04-22 20:56:00,70.7,64.9,30.05,NNW,338,3.0,11.0,82,0.00,,,0.19,meteohub,2013-04-23 00:56:00,
2013-04-22 21:01:00,70.5,65.1,30.05,North,9,2.0,11.0,83,0.00,,,0.19,meteohub,2013-04-23 01:01:00,
2013-04-22 21:06:00,70.5,64.8,30.06,NNW,346,7.0,11.0,82,0.00,,,0.19,meteohub,2013-04-23 01:06:00,
2013-04-22 21:11:00,70.3,64.6,30.06,NE,51,5.0,11.0,82,0.00,,,0.19,meteohub,2013-04-23 01:11:00,
2013-04-22 21:16:00,70.2,64.4,30.06,NNE,24,5.0,12.0,82,0.00,,,0.19,meteohub,2013-04-23 01:16:00,
2013-04-22 21:21:00,70.2,64.4,30.06,NE,42,1.0,12.0,82,0.00,,,0.19,meteohub,2013-04-23 01:21:00,
2013-04-22 21:26:00,70.0,63.9,30.06,North,11,12.0,12.0,81,0.00,,,0.19,meteohub,2013-04-23 01:26:00,
2013-04-22 21:31:00,69.8,63.7,30.07,NNE,16,5.0,13.0,81,0.00,,,0.19,meteohub,2013-04-23 01:31:00,
2013-04-22 21:36:00,69.4,63.3,30.07,NNE,27,9.0,13.0,81,0.00,,,0.19,meteohub,2013-04-23 01:36:00,
2013-04-22 21:41:00,69.4,63.3,30.07,NNE,24,7.0,13.0,81,0.00,,,0.19,meteohub,2013-04-23 01:41:00,
2013-04-22 21:46:00,69.4,63.3,30.07,NE,36,5.0,13.0,81,0.00,,,0.19,meteohub,2013-04-23 01:46:00,
2013-04-22 21:51:00,69.3,63.1,30.08,NE,44,1.0,13.0,81,0.00,,,0.19,meteohub,2013-04-23 01:51:00,
2013-04-22 21:56:00,69.3,63.5,30.08,ENE,75,3.0,12.0,82,0.00,,,0.19,meteohub,2013-04-23 01:56:00,
2013-04-22 22:01:00,69.3,63.5,30.08,NNE,30,2.0,12.0,82,0.00,,,0.19,meteohub,2013-04-23 02:01:00,
2013-04-22 22:06:00,69.3,63.5,30.08,NE,40,5.0,12.0,82,0.00,,,0.19,meteohub,2013-04-23 02:06:00,
2013-04-22 22:11:00,69.1,63.7,30.08,ENE,77,3.0,12.0,83,0.00,,,0.19,meteohub,2013-04-23 02:11:00,
2013-04-22 22:16:00,69.1,63.7,30.09,NE,51,2.0,12.0,83,0.00,,,0.19,meteohub,2013-04-23 02:16:00,
2013-04-22 22:21:00,68.7,63.3,30.09,NNW,342,5.0,8.0,83,0.00,,,0.19,meteohub,2013-04-23 02:21:00,
2013-04-22 22:26:00,68.7,63.3,30.09,East,85,3.0,10.0,83,0.00,,,0.19,meteohub,2013-04-23 02:26:00,
2013-04-22 22:31:00,68.5,63.1,30.09,NNE,31,4.0,16.0,83,0.00,,,0.19,meteohub,2013-04-23 02:31:00,
2013-04-22 22:36:00,68.4,63.0,30.09,North,0,4.0,16.0,83,0.00,,,0.19,meteohub,2013-04-23 02:36:00,
2013-04-22 22:41:00,68.4,63.3,30.08,NNE,27,4.0,16.0,84,0.00,,,0.19,meteohub,2013-04-23 02:41:00,
2013-04-22 22:46:00,68.2,63.1,30.08,ENE,74,2.0,10.0,84,0.00,,,0.19,meteohub,2013-04-23 02:46:00,
2013-04-22 22:51:00,68.0,63.0,30.08,ENE,60,2.0,10.0,84,0.00,,,0.19,meteohub,2013-04-23 02:51:00,
2013-04-22 22:56:00,67.8,62.8,30.08,NE,46,9.0,10.0,84,0.00,,,0.19,meteohub,2013-04-23 02:56:00,
2013-04-22 23:01:00,67.8,63.1,30.09,NNE,24,7.0,12.0,85,0.00,,,0.19,meteohub,2013-04-23 03:01:00,
2013-04-22 23:06:00,67.6,63.0,30.09,ENE,72,4.0,12.0,85,0.00,,,0.19,meteohub,2013-04-23 03:06:00,
2013-04-22 23:11:00,67.6,63.0,30.08,NNE,21,1.0,12.0,85,0.00,,,0.19,meteohub,2013-04-23 03:11:00,
2013-04-22 23:16:00,67.6,63.0,30.08,ENE,59,4.0,11.0,85,0.00,,,0.19,meteohub,2013-04-23 03:16:00,
2013-04-22 23:21:00,67.5,62.8,30.09,NE,34,3.0,8.0,85,0.00,,,0.19,meteohub,2013-04-23 03:21:00,
2013-04-22 23:26:00,67.5,62.8,30.09,NNE,23,3.0,11.0,85,0.00,,,0.19,meteohub,2013-04-23 03:26:00,
2013-04-22 23:31:00,67.5,62.8,30.09,NE,56,2.0,11.0,85,0.00,,,0.19,meteohub,2013-04-23 03:31:00,
2013-04-22 23:36:00,67.5,62.8,30.09,NNE,29,4.0,10.0,85,0.00,,,0.19,meteohub,2013-04-23 03:36:00,
2013-04-22 23:41:00,67.5,63.1,30.09,NE,35,2.0,10.0,86,0.00,,,0.00,meteohub,2013-04-23 03:41:00,
2013-04-22 23:46:00,67.5,63.1,30.09,NNE,32,4.0,9.0,86,0.00,,,0.00,meteohub,2013-04-23 03:46:00,
2013-04-22 23:51:00,67.5,63.1,30.09,NNE,23,4.0,9.0,86,0.00,,,0.00,meteohub,2013-04-23 03:51:00,
2013-04-22 23:56:00,67.3,63.0,30.09,North,355,3.0,11.0,86,0.00,,,0.00,meteohub,2013-04-23 03:56:00,